Location: Newark
(47.5833°N, 8.1500°E)
Time: 09:02:33
(UTC+00:00)

Tiros 1 despin weight - Pass Details

Date: 06 November 2020
Orbit: 593 x 642 km, 48.2° (Epoch: 26 November)

Event Time Altitude Azimuth Distance (km) Brightness Sun altitude
Rises 20:06:47 0° 223° (SW) 2,903 - -41.0°
Reaches altitude 10° 20:09:14 10° 215° (SW) 1,991 - -41.4°
Maximum altitude 20:13:25 36° 149° (SSE) 984 - -42.0°
Drops below altitude 10° 20:17:34 10° 83° (E) 1,969 - -42.7°
Sets 20:19:59 0° 75° (ENE) 2,868 - -43.0°
